• In Uzbekistan
  • List of Countries
  • For 7 days
  • Water Temperature
  • Satellite Maps
  • Weather Map
  • Weather Widgets
  • user-avatar
    Login

    Hourly Weather Konchaki

    Today, 23 September, Sunday

    Time Temperature Precipitation Wind Pressure Humidity
    00:00 +17°C° 0 mm 3 mps 750 mmHg 73%
    01:00 +17°C° 0 mm 4 mps 750 mmHg 73%
    02:00 +15°C° 0 mm 4 mps 750 mmHg 73%
    03:00 +16°C° 0 mm 3 mps 750 mmHg 78%
    04:00 +14°C° 0 mm 4 mps 749 mmHg 77%
    05:00 +14°C° 0 mm 4 mps 749 mmHg 75%
    06:00 +14°C° 0 mm 5 mps 749 mmHg 74%
    07:00 +16°C° 0 mm 6 mps 748 mmHg 68%
    08:00 +17°C° 0 mm 7 mps 748 mmHg 63%
    09:00 +20°C° 0 mm 8 mps 747 mmHg 57%
    10:00 +21°C° 0 mm 8 mps 747 mmHg 54%
    11:00 +22°C° 0 mm 8 mps 746 mmHg 50%
    12:00 +23°C° 0 mm 8 mps 746 mmHg 46%
    13:00 +23°C° 0 mm 8 mps 746 mmHg 46%
    14:00 +24°C° 0 mm 8 mps 745 mmHg 46%
    15:00 +24°C° 0 mm 7 mps 745 mmHg 46%
    16:00 +22°C° 0.6 mm 7 mps 745 mmHg 55%
    17:00 +20°C° 0.6 mm 6 mps 744 mmHg 64%
    18:00 +17°C° 0.6 mm 5 mps 744 mmHg 73%
    19:00 +15°C° 2.6 mm 5 mps 744 mmHg 78%
    20:00 +14°C° 2.6 mm 6 mps 744 mmHg 83%
    21:00 +11°C° 2.6 mm 6 mps 744 mmHg 87%
    22:00 +10°C° 2.9 mm 6 mps 745 mmHg 88%
    23:00 +10°C° 2.9 mm 5 mps 745 mmHg 88%

    Tomorrow, 24 September, Monday

    Time Temperature Precipitation Wind Pressure Humidity
    00:00 +9°C° 2.9 mm 5 mps 745 mmHg 88%
    01:00 +9°C° 0.4 mm 5 mps 745 mmHg 87%
    02:00 +9°C° 0.4 mm 5 mps 746 mmHg 87%
    03:00 +10°C° 0.4 mm 4 mps 746 mmHg 86%
    04:00 +10°C° 0 mm 4 mps 746 mmHg 88%
    05:00 +8°C° 0 mm 4 mps 747 mmHg 90%
    06:00 +9°C° 0 mm 3 mps 747 mmHg 92%
    07:00 +10°C° 0 mm 3 mps 747 mmHg 87%
    08:00 +11°C° 0 mm 3 mps 748 mmHg 82%
    09:00 +12°C° 0 mm 3 mps 748 mmHg 78%
    10:00 +13°C° 0 mm 3 mps 748 mmHg 70%
    11:00 +14°C° 0 mm 3 mps 748 mmHg 63%
    12:00 +16°C° 0 mm 3 mps 748 mmHg 56%
    13:00 +16°C° 0 mm 3 mps 748 mmHg 54%
    14:00 +17°C° 0 mm 4 mps 748 mmHg 53%
    15:00 +17°C° 0 mm 4 mps 747 mmHg 51%
    16:00 +15°C° 0 mm 4 mps 747 mmHg 54%
    17:00 +14°C° 0 mm 4 mps 746 mmHg 58%
    18:00 +14°C° 0 mm 3 mps 745 mmHg 61%
    19:00 +14°C° 0 mm 4 mps 745 mmHg 60%
    20:00 +14°C° 0 mm 5 mps 745 mmHg 60%
    21:00 +14°C° 0 mm 5 mps 745 mmHg 59%
    22:00 +13°C° 0.2 mm 6 mps 744 mmHg 60%
    23:00 +13°C° 0.2 mm 6 mps 743 mmHg 61%

    Day after tomorrow, 25 September, Tuesday

    Time Temperature Precipitation Wind Pressure Humidity
    00:00 +12°C° 0.2 mm 7 mps 743 mmHg 62%
    01:00 +12°C° 0.3 mm 7 mps 742 mmHg 62%
    02:00 +12°C° 0.3 mm 7 mps 741 mmHg 62%
    03:00 +11°C° 0.3 mm 8 mps 740 mmHg 62%
    04:00 +11°C° 0.5 mm 7 mps 740 mmHg 68%
    05:00 +11°C° 0.5 mm 7 mps 740 mmHg 75%
    06:00 +11°C° 0.5 mm 7 mps 739 mmHg 81%
    07:00 +10°C° 0.5 mm 7 mps 740 mmHg 82%
    08:00 +10°C° 0.5 mm 6 mps 740 mmHg 82%
    09:00 +10°C° 0.5 mm 6 mps 740 mmHg 83%
    10:00 +10°C° 0.1 mm 6 mps 740 mmHg 78%
    11:00 +11°C° 0.1 mm 7 mps 741 mmHg 73%
    12:00 +11°C° 0.1 mm 7 mps 741 mmHg 68%
    13:00 +11°C° 0 mm 7 mps 741 mmHg 68%
    14:00 +11°C° 0 mm 7 mps 742 mmHg 67%
    15:00 +11°C° 0 mm 7 mps 742 mmHg 66%
    16:00 +10°C° 0 mm 7 mps 743 mmHg 68%
    17:00 +10°C° 0 mm 6 mps 743 mmHg 70%
    18:00 +9°C° 0 mm 6 mps 744 mmHg 71%
    19:00 +9°C° 0 mm 5 mps 744 mmHg 74%
    20:00 +8°C° 0 mm 5 mps 745 mmHg 76%
    21:00 +7°C° 0 mm 5 mps 745 mmHg 78%
    22:00 +7°C° 0 mm 5 mps 746 mmHg 79%
    23:00 +6°C° 0 mm 4 mps 746 mmHg 80%

    26 September, Wednesday

    Time Temperature Precipitation Wind Pressure Humidity
    00:00 +6°C° 0 mm 4 mps 747 mmHg 80%
    01:00 +5°C° 0 mm 4 mps 747 mmHg 81%
    02:00 +5°C° 0 mm 4 mps 748 mmHg 82%
    03:00 +4°C° 0 mm 4 mps 748 mmHg 83%
    04:00 +4°C° 0 mm 4 mps 749 mmHg 84%
    05:00 +4°C° 0 mm 4 mps 749 mmHg 85%
    06:00 +4°C° 0 mm 4 mps 749 mmHg 86%
    07:00 +5°C° 0 mm 4 mps 750 mmHg 81%
    08:00 +6°C° 0 mm 4 mps 751 mmHg 76%
    09:00 +7°C° 0 mm 5 mps 751 mmHg 72%
    10:00 +7°C° 0 mm 5 mps 752 mmHg 68%
    11:00 +8°C° 0 mm 5 mps 752 mmHg 64%
    12:00 +9°C° 0 mm 5 mps 752 mmHg 61%
    13:00 +10°C° 0 mm 4 mps 753 mmHg 59%
    14:00 +11°C° 0 mm 4 mps 753 mmHg 58%
    15:00 +11°C° 0 mm 4 mps 753 mmHg 56%
    16:00 +10°C° 0 mm 4 mps 753 mmHg 59%
    17:00 +9°C° 0 mm 3 mps 754 mmHg 61%
    18:00 +9°C° 0 mm 2 mps 754 mmHg 63%
    19:00 +8°C° 0 mm 2 mps 754 mmHg 66%
    20:00 +7°C° 0 mm 2 mps 754 mmHg 68%
    21:00 +6°C° 0 mm 2 mps 755 mmHg 71%
    22:00 +6°C° 0 mm 2 mps 754 mmHg 71%
    23:00 +5°C° 0 mm 2 mps 754 mmHg 72%

    27 September, Thursday

    Time Temperature Precipitation Wind Pressure Humidity
    00:00 +4°C° 0 mm 3 mps 754 mmHg 72%
    01:00 +4°C° 0 mm 3 mps 754 mmHg 72%
    02:00 +3°C° 0 mm 3 mps 754 mmHg 72%
    03:00 +3°C° 0 mm 3 mps 754 mmHg 72%
    04:00 +3°C° 0 mm 3 mps 754 mmHg 72%
    05:00 +3°C° 0 mm 4 mps 754 mmHg 72%
    06:00 +1°C° 0 mm 4 mps 753 mmHg 72%
    07:00 +3°C° 0 mm 5 mps 753 mmHg 67%
    08:00 +4°C° 0 mm 6 mps 752 mmHg 62%
    09:00 +5°C° 0 mm 7 mps 752 mmHg 57%
    10:00 +6°C° 0 mm 7 mps 751 mmHg 56%
    11:00 +6°C° 0 mm 8 mps 751 mmHg 54%
    12:00 +7°C° 0 mm 8 mps 750 mmHg 53%
    13:00 +7°C° 0.2 mm 8 mps 750 mmHg 56%
    14:00 +7°C° 0.2 mm 9 mps 749 mmHg 58%
    15:00 +6°C° 0.2 mm 9 mps 749 mmHg 61%
    16:00 +6°C° 0.5 mm 8 mps 748 mmHg 65%
    17:00 +6°C° 0.5 mm 8 mps 748 mmHg 69%
    18:00 +6°C° 0.5 mm 8 mps 748 mmHg 73%
    19:00 +6°C° 0.2 mm 7 mps 748 mmHg 75%
    20:00 +6°C° 0.2 mm 7 mps 748 mmHg 78%
    21:00 +6°C° 0.2 mm 7 mps 748 mmHg 81%
    22:00 +7°C° 0 mm 6 mps 748 mmHg 83%
    23:00 +7°C° 0 mm 6 mps 748 mmHg 85%

    28 September, Friday

    Time Temperature Precipitation Wind Pressure Humidity
    00:00 +7°C° 0 mm 5 mps 748 mmHg 87%
    01:00 +7°C° 0 mm 5 mps 748 mmHg 89%
    02:00 +7°C° 0 mm 4 mps 748 mmHg 90%
    03:00 +7°C° 0 mm 4 mps 748 mmHg 92%
    04:00 +6°C° 0 mm 4 mps 748 mmHg 93%
    05:00 +6°C° 0 mm 4 mps 748 mmHg 94%
    06:00 +6°C° 0 mm 4 mps 748 mmHg 94%
    07:00 +7°C° 0 mm 4 mps 748 mmHg 91%
    08:00 +8°C° 0 mm 5 mps 748 mmHg 88%
    09:00 +9°C° 0 mm 5 mps 748 mmHg 85%
    10:00 +10°C° 0 mm 6 mps 748 mmHg 82%
    11:00 +11°C° 0 mm 6 mps 747 mmHg 80%
    12:00 +11°C° 0 mm 7 mps 747 mmHg 77%
    13:00 +12°C° 0 mm 7 mps 747 mmHg 75%
    14:00 +14°C° 0 mm 7 mps 747 mmHg 73%
    15:00 +14°C° 0 mm 7 mps 746 mmHg 71%
    16:00 +14°C° 0 mm 7 mps 746 mmHg 73%
    17:00 +14°C° 0 mm 6 mps 746 mmHg 75%
    18:00 +13°C° 0 mm 5 mps 746 mmHg 77%
    19:00 +13°C° 0 mm 6 mps 746 mmHg 78%
    20:00 +13°C° 0 mm 6 mps 745 mmHg 79%
    21:00 +12°C° 0 mm 7 mps 745 mmHg 79%
    22:00 +13°C° 0 mm 6 mps 745 mmHg 81%
    23:00 +13°C° 0 mm 6 mps 745 mmHg 82%
    Show more